Schneifelwetter: Wetterstation Hallschlag, 537 m . NN
Wetterdaten: Mittwoch, 23.11.2011
Datum Zeit Temp. A. Feuchte A. Luftdruck Regen Wind Richtung Richtung Sonnenschein Helligkeit T Regen Taupunkt Windchill
23.11.2011 00:09 2,6 C 97 % 1020 hPa 0,0 l/m 0,0 km/h (0 Bft) SW 235 0 min 0 lux 0 min 2,2 C 2,6 C
23.11.2011 00:24 2,6 C 97 % 1020 hPa 0,0 l/m 0,0 km/h (0 Bft) SW 235 0 min 0 lux 0 min 2,2 C 2,6 C
23.11.2011 00:39 2,7 C 97 % 1020 hPa 0,0 l/m 0,0 km/h (0 Bft) SW 235 0 min 0 lux 0 min 2,3 C 2,7 C
23.11.2011 00:54 3,0 C 98 % 1020 hPa 0,0 l/m 0,0 km/h (0 Bft) SW 235 0 min 0 lux 0 min 2,7 C 3,0 C
23.11.2011 01:09 3,2 C 97 % 1020 hPa 0,0 l/m 0,0 km/h (0 Bft) SW 235 0 min 0 lux 0 min 2,8 C 3,2 C
23.11.2011 01:24 3,3 C 97 % 1020 hPa 0,0 l/m 0,0 km/h (0 Bft) SW 235 0 min 0 lux 0 min 2,9 C 3,3 C
23.11.2011 01:39 3,5 C 98 % 1020 hPa 0,0 l/m 0,0 km/h (0 Bft) SW 235 0 min 0 lux 0 min 3,2 C 3,5 C
23.11.2011 01:54 3,8 C 98 % 1020 hPa 0,0 l/m 0,0 km/h (0 Bft) SW 235 0 min 0 lux 0 min 3,5 C 3,8 C
23.11.2011 02:09 4,0 C 98 % 1020 hPa 0,0 l/m 0,0 km/h (0 Bft) SW 235 0 min 0 lux 0 min 3,7 C 4,0 C
23.11.2011 02:24 4,3 C 98 % 1020 hPa 0,0 l/m 0,0 km/h (0 Bft) SW 235 0 min 0 lux 0 min 4,0 C 4,3 C
23.11.2011 02:39 4,3 C 98 % 1020 hPa 0,0 l/m 0,0 km/h (0 Bft) SW 235 0 min 0 lux 0 min 4,0 C 4,3 C
23.11.2011 02:54 4,4 C 98 % 1020 hPa 0,0 l/m 0,0 km/h (0 Bft) SW 235 0 min 0 lux 0 min 4,1 C 4,4 C
23.11.2011 03:09 4,6 C 98 % 1021 hPa 0,0 l/m 0,0 km/h (0 Bft) SW 235 0 min 0 lux 0 min 4,3 C 4,6 C
23.11.2011 03:24 4,7 C 98 % 1021 hPa 0,0 l/m 0,0 km/h (0 Bft) SW 235 0 min 0 lux 0 min 4,4 C 4,7 C
23.11.2011 03:39 4,7 C 98 % 1021 hPa 0,0 l/m 0,0 km/h (0 Bft) SW 235 0 min 0 lux 0 min 4,4 C 4,7 C
23.11.2011 03:54 4,7 C 98 % 1021 hPa 0,0 l/m 0,0 km/h (0 Bft) SW 235 0 min 0 lux 0 min 4,4 C 4,7 C
23.11.2011 04:09 4,7 C 98 % 1021 hPa 0,0 l/m 0,0 km/h (0 Bft) SW 235 0 min 0 lux 0 min 4,4 C 4,7 C
23.11.2011 04:24 4,8 C 98 % 1021 hPa 0,0 l/m 0,0 km/h (0 Bft) SW 235 0 min 0 lux 0 min 4,5 C 4,8 C
23.11.2011 04:39 4,9 C 98 % 1021 hPa 0,0 l/m 0,0 km/h (0 Bft) SW 235 0 min 0 lux 0 min 4,6 C 4,9 C
23.11.2011 04:54 4,8 C 98 % 1021 hPa 0,0 l/m 0,0 km/h (0 Bft) SW 235 0 min 0 lux 0 min 4,5 C 4,8 C
23.11.2011 05:09 4,7 C 98 % 1021 hPa 0,0 l/m 0,0 km/h (0 Bft) SW 235 0 min 0 lux 0 min 4,4 C 4,7 C
23.11.2011 05:24 4,7 C 98 % 1021 hPa 0,0 l/m 0,0 km/h (0 Bft) SW 235 0 min 0 lux 0 min 4,4 C 4,7 C
23.11.2011 05:39 4,4 C 98 % 1021 hPa 0,0 l/m 0,0 km/h (0 Bft) SW 235 0 min 0 lux 0 min 4,1 C 4,4 C
23.11.2011 05:54 3,9 C 98 % 1022 hPa 0,0 l/m 0,0 km/h (0 Bft) W-SW 240 0 min 0 lux 0 min 3,6 C 3,9 C
23.11.2011 06:09 3,7 C 98 % 1022 hPa 0,0 l/m 0,0 km/h (0 Bft) W-SW 240 0 min 0 lux 0 min 3,4 C 3,7 C
23.11.2011 06:24 3,5 C 98 % 1022 hPa 0,0 l/m 0,0 km/h (0 Bft) W-SW 240 0 min 0 lux 0 min 3,2 C 3,5 C
23.11.2011 06:39 3,2 C 98 % 1022 hPa 0,0 l/m 0,0 km/h (0 Bft) SW 235 0 min 0 lux 0 min 2,9 C 3,2 C
23.11.2011 06:54 2,8 C 98 % 1022 hPa 0,0 l/m 0,0 km/h (0 Bft) SW 235 0 min 0 lux 0 min 2,5 C 2,8 C
23.11.2011 07:09 2,7 C 98 % 1022 hPa 0,0 l/m 0,0 km/h (0 Bft) SW 235 0 min 0 lux 0 min 2,4 C 2,7 C
23.11.2011 07:24 2,8 C 99 % 1022 hPa 0,0 l/m 0,0 km/h (0 Bft) SW 235 0 min 0 lux 0 min 2,7 C 2,8 C
23.11.2011 07:39 3,0 C 99 % 1023 hPa 0,0 l/m 0,0 km/h (0 Bft) SW 235 0 min 53 lux 0 min 2,9 C 3,0 C
23.11.2011 08:01 3,1 C 99 % 1023 hPa 0,0 l/m 0,0 km/h (0 Bft) SW 235 0 min 128 lux 0 min 3,0 C 3,1 C
23.11.2011 08:15 3,3 C 99 % 1023 hPa 0,0 l/m 0,0 km/h (0 Bft) SW 235 0 min 601 lux 0 min 3,2 C 3,3 C
23.11.2011 08:30 3,5 C 99 % 1023 hPa 0,0 l/m 0,0 km/h (0 Bft) SW 235 0 min 924 lux 0 min 3,4 C 3,5 C
23.11.2011 08:45 3,8 C 99 % 1023 hPa 0,0 l/m 0,0 km/h (0 Bft) SW 235 0 min 2,46 klux 0 min 3,7 C 3,8 C
23.11.2011 09:00 4,3 C 99 % 1023 hPa 0,0 l/m 0,0 km/h (0 Bft) SW 235 0 min 4,41 klux 0 min 4,2 C 4,3 C
23.11.2011 09:16 4,8 C 99 % 1024 hPa 0,0 l/m 0,0 km/h (0 Bft) SW 235 0 min 4,66 klux 0 min 4,7 C 4,8 C
23.11.2011 09:31 5,2 C 99 % 1024 hPa 0,0 l/m 0,0 km/h (0 Bft) W-SW 240 0 min 6,74 klux 0 min 5,1 C 5,2 C
23.11.2011 09:45 5,3 C 98 % 1024 hPa 0,0 l/m 0,0 km/h (0 Bft) W-SW 240 0 min 10,6 klux 0 min 5,0 C 5,3 C
23.11.2011 10:00 5,5 C 99 % 1023 hPa 0,0 l/m 0,0 km/h (0 Bft) SW 235 0 min 26,3 klux 0 min 5,4 C 5,5 C
23.11.2011 10:15 5,8 C 99 % 1023 hPa 0,0 l/m 0,0 km/h (0 Bft) SW 235 0 min 29,2 klux 0 min 5,7 C 5,8 C
23.11.2011 10:30 6,5 C 99 % 1024 hPa 0,0 l/m 0,0 km/h (0 Bft) W-SW 240 0 min 32,1 klux 0 min 6,4 C 6,5 C
23.11.2011 10:46 6,8 C 99 % 1024 hPa 0,0 l/m 0,0 km/h (0 Bft) SW 235 0 min 18,2 klux 0 min 6,7 C 6,8 C
23.11.2011 11:01 7,3 C 99 % 1024 hPa 0,0 l/m 0,0 km/h (0 Bft) SW 235 0 min 18,9 klux 0 min 7,2 C 7,3 C
23.11.2011 11:15 8,1 C 99 % 1024 hPa 0,0 l/m 0,0 km/h (0 Bft) SW 235 0 min 17,4 klux 0 min 8,0 C 8,1 C
23.11.2011 11:30 8,8 C 99 % 1024 hPa 0,0 l/m 0,0 km/h (0 Bft) SW 235 0 min 11,2 klux 0 min 8,7 C 8,8 C
23.11.2011 11:45 9,2 C 99 % 1024 hPa 0,0 l/m 0,0 km/h (0 Bft) SW 235 0 min 11,3 klux 0 min 9,1 C 9,2 C
23.11.2011 12:00 9,6 C 99 % 1024 hPa 0,0 l/m 0,0 km/h (0 Bft) SW 235 0 min 11,9 klux 0 min 9,5 C 9,6 C
23.11.2011 12:16 9,7 C 98 % 1024 hPa 0,0 l/m 0,0 km/h (0 Bft) SW 235 0 min 9,6 klux 0 min 9,4 C 9,7 C
23.11.2011 12:31 9,8 C 98 % 1024 hPa 0,0 l/m 0,0 km/h (0 Bft) SW 235 0 min 8,57 klux 0 min 9,5 C 9,8 C
23.11.2011 12:45 9,7 C 97 % 1024 hPa 0,0 l/m 0,0 km/h (0 Bft) SW 235 0 min 8,28 klux 0 min 9,2 C 9,7 C
23.11.2011 13:00 9,6 C 96 % 1024 hPa 0,0 l/m 0,0 km/h (0 Bft) SW 235 0 min 8,77 klux 0 min 9,0 C 9,6 C
23.11.2011 13:15 9,7 C 96 % 1024 hPa 0,0 l/m 0,0 km/h (0 Bft) SW 235 0 min 8,64 klux 0 min 9,1 C 9,7 C
23.11.2011 13:30 10,0 C 96 % 1024 hPa 0,0 l/m 0,0 km/h (0 Bft) SW 235 0 min 9,2 klux 0 min 9,4 C 10,0 C
23.11.2011 13:46 10,2 C 96 % 1024 hPa 0,0 l/m 0,0 km/h (0 Bft) SW 235 0 min 15,0 klux 0 min 9,6 C 10,2 C
23.11.2011 14:01 10,4 C 95 % 1024 hPa 0,0 l/m 10,2 km/h (2 Bft) S-SO 155 0 min 22,1 klux 0 min 9,6 C 7,9 C
23.11.2011 14:15 10,4 C 94 % 1024 hPa 0,0 l/m 6,2 km/h (2 Bft) S-SO 155 0 min 10,8 klux 0 min 9,5 C 10,4 C
23.11.2011 14:30 10,3 C 93 % 1024 hPa 0,0 l/m 1,0 km/h (0 Bft) S 185 0 min 8,75 klux 0 min 9,2 C 10,3 C
23.11.2011 14:45 10,2 C 93 % 1024 hPa 0,0 l/m 7,1 km/h (2 Bft) S 170 0 min 7,54 klux 0 min 9,1 C 9,7 C
23.11.2011 15:00 10,0 C 92 % 1024 hPa 0,0 l/m 6,8 km/h (2 Bft) SW 225 0 min 6,65 klux 0 min 8,8 C 9,7 C
23.11.2011 15:16 10,0 C 93 % 1024 hPa 0,0 l/m 6,5 km/h (2 Bft) SW22.5 225 0 min 6,94 klux 0 min 8,9 C 10,0 C
23.11.2011 15:31 10,0 C 92 % 1024 hPa 0,0 l/m 0,0 km/h (0 Bft) S-SW 195 0 min 6,05 klux 0 min 8,8 C 10,0 C
23.11.2011 15:45 9,8 C 92 % 1024 hPa 0,0 l/m 0,0 km/h (0 Bft) SW 235 0 min 4,47 klux 0 min 8,6 C 9,8 C
23.11.2011 16:00 9,7 C 92 % 1024 hPa 0,0 l/m 0,0 km/h (0 Bft) SW 235 0 min 3,61 klux 0 min 8,5 C 9,7 C
23.11.2011 16:15 9,0 C 91 % 1024 hPa 0,0 l/m 0,0 km/h (0 Bft) SW 235 0 min 5,42 klux 0 min 7,6 C 9,0 C
23.11.2011 16:30 8,2 C 91 % 1024 hPa 0,0 l/m 0,0 km/h (0 Bft) S 180 0 min 4,01 klux 0 min 6,8 C 8,2 C
23.11.2011 16:46 7,2 C 92 % 1024 hPa 0,0 l/m 0,0 km/h (0 Bft) S 180 0 min 1,17 klux 0 min 6,0 C 7,2 C
23.11.2011 17:01 6,6 C 93 % 1025 hPa 0,0 l/m 1,3 km/h (1 Bft) SW45 235 0 min 424 lux 0 min 5,6 C 6,6 C
23.11.2011 17:15 7,1 C 96 % 1025 hPa 0,0 l/m 11,8 km/h (2 Bft) W22.5 275 0 min 44 lux 0 min 6,5 C 3,3 C
23.11.2011 17:30 6,8 C 95 % 1025 hPa 0,0 l/m 0,0 km/h (0 Bft) W 265 0 min 4 lux 0 min 6,1 C 6,8 C
23.11.2011 17:45 6,6 C 95 % 1026 hPa 0,0 l/m 0,0 km/h (0 Bft) W 265 0 min 0 lux 0 min 5,9 C 6,6 C
23.11.2011 18:00 6,5 C 96 % 1026 hPa 0,0 l/m 0,0 km/h (0 Bft) W 265 0 min 0 lux 0 min 5,9 C 6,5 C
23.11.2011 18:16 6,5 C 96 % 1026 hPa 0,0 l/m 0,0 km/h (0 Bft) W 265 0 min 0 lux 0 min 5,9 C 6,5 C
23.11.2011 18:30 6,6 C 96 % 1026 hPa 0,0 l/m 0,0 km/h (0 Bft) W 265 0 min 0 lux 0 min 6,0 C 6,6 C
23.11.2011 18:45 6,5 C 96 % 1026 hPa 0,0 l/m 0,0 km/h (0 Bft) W 265 0 min 0 lux 0 min 5,9 C 6,5 C
23.11.2011 19:00 6,6 C 96 % 1026 hPa 0,0 l/m 0,0 km/h (0 Bft) W 265 0 min 0 lux 0 min 6,0 C 6,6 C
23.11.2011 19:15 6,6 C 96 % 1026 hPa 0,0 l/m 0,0 km/h (0 Bft) W 265 0 min 0 lux 0 min 6,0 C 6,6 C
23.11.2011 19:30 6,8 C 96 % 1026 hPa 0,0 l/m 0,0 km/h (0 Bft) W 265 0 min 0 lux 0 min 6,2 C 6,8 C
23.11.2011 19:46 6,8 C 96 % 1027 hPa 0,0 l/m 0,0 km/h (0 Bft) W 265 0 min 0 lux 0 min 6,2 C 6,8 C
23.11.2011 20:00 6,9 C 96 % 1027 hPa 0,0 l/m 0,0 km/h (0 Bft) W 265 0 min 0 lux 0 min 6,3 C 6,9 C
23.11.2011 20:15 6,9 C 96 % 1027 hPa 0,0 l/m 0,0 km/h (0 Bft) W 265 0 min 0 lux 0 min 6,3 C 6,9 C
23.11.2011 20:30 7,2 C 97 % 1027 hPa 0,0 l/m 0,0 km/h (0 Bft) W 265 0 min 0 lux 0 min 6,8 C 7,2 C
23.11.2011 20:45 7,2 C 97 % 1027 hPa 0,0 l/m 0,0 km/h (0 Bft) W 265 0 min 0 lux 0 min 6,8 C 7,2 C
23.11.2011 21:00 7,2 C 97 % 1027 hPa 0,0 l/m 0,0 km/h (0 Bft) W 265 0 min 0 lux 0 min 6,8 C 7,2 C
23.11.2011 21:16 7,2 C 97 % 1027 hPa 0,0 l/m 0,0 km/h (0 Bft) W 265 0 min 0 lux 0 min 6,8 C 7,2 C
23.11.2011 21:30 7,2 C 97 % 1027 hPa 0,0 l/m 0,0 km/h (0 Bft) W 265 0 min 0 lux 0 min 6,8 C 7,2 C
23.11.2011 21:45 7,3 C 97 % 1027 hPa 0,0 l/m 0,0 km/h (0 Bft) W 265 0 min 0 lux 0 min 6,9 C 7,3 C
23.11.2011 22:00 7,4 C 97 % 1027 hPa 0,0 l/m 0,0 km/h (0 Bft) W 265 0 min 0 lux 0 min 7,0 C 7,4 C
23.11.2011 22:15 7,4 C 97 % 1027 hPa 0,0 l/m 0,0 km/h (0 Bft) W 265 0 min 0 lux 0 min 7,0 C 7,4 C
23.11.2011 22:30 7,4 C 97 % 1027 hPa 0,0 l/m 0,0 km/h (0 Bft) W 265 0 min 0 lux 0 min 7,0 C 7,4 C
23.11.2011 22:46 7,3 C 97 % 1028 hPa 0,0 l/m 0,0 km/h (0 Bft) W 265 0 min 0 lux 0 min 6,9 C 7,3 C
23.11.2011 23:00 7,3 C 97 % 1028 hPa 0,0 l/m 0,0 km/h (0 Bft) W 265 0 min 0 lux 0 min 6,9 C 7,3 C
23.11.2011 23:15 7,2 C 97 % 1028 hPa 0,0 l/m 0,0 km/h (0 Bft) W 265 0 min 0 lux 0 min 6,8 C 7,2 C
23.11.2011 23:30 7,2 C 97 % 1028 hPa 0,0 l/m 0,0 km/h (0 Bft) W 265 0 min 0 lux 0 min 6,8 C 7,2 C
23.11.2011 23:45 7,2 C 97 % 1028 hPa 0,0 l/m 7,7 km/h (2 Bft) W-SW 250 0 min 0 lux 0 min 6,8 C 6,1 C
23.11.2011 23:54 7,2 C 97 % 1028 hPa 0,0 l/m 4,3 km/h (1 Bft) W-SW 250 0 min 0 lux 0 min 6,8 C 7,2 C
_ Min-Zeit 00:09 16:15 00:09 - 00:09 - - - - - 00:09 00:09
Minimum _ 2,6 C 91 % 1020 hPa - 0,0 km/h (0 Bft) - - - - - 2,2 C 2,6 C
_ Max-Zeit 14:01 07:24 22:46 00:09 17:15 - - 00:09 10:30 00:09 14:01 14:15
Maximum _ 10,4 C 99 % 1028 hPa 0,0 l/m 11,8 km/h
W (2 Bft)
- - 0 min 32,1 klux 0 min 9,6 C 10,4 C
Durchschnitt _ 6,3 C 97 % 1024 hPa #0,0 l/m 0,6 km/h (0 Bft) SW - #0 min. 3,80 klux #0 min. 5,8 C 6,2 C